Content
SEND FEEDBACK

Brazil Flag

TERESINA, PIAUI


Home > South America > Brazil > Piaui
Elevation: 328 feet     Latitude: 05 03S     Longitude: 042 48W

WEATHER
 
SELECT A DAY
Number of Records: 181,067;   Date Range: 6/30/96 - 3/22/16
 
SHARE

PRINT THIS DATA

[ ← Previous Day ]
WEATHER ALMANAC - MARCH 12, 2013
[ Next Day → ]
[ °C ]   °F
Weather ElementAverageHighLow
Temperature87.5 °F98 °F (3:00 pm)78.8 °F (4:00 am)
Dewpoint76.5 °F78.8 °F (7:00 am)71.6 °F (3:00 pm)
Humidity71.1 %94 % (4:00 am)33 % (3:00 pm)
Barometer29.77 in29.87 in (9:00 am)29.68 in (4:00 pm)
Wind Speed2.4 mph6.9 mph (1:00 am)
Weather ElementAverage
Visibility7.5 mi
Wind DirectionS (175.2 °)

Weather ElementTotal
Precipitation---
Cooling Degree Days23.4 (Base 65)
Growing Degree Days38.4 (Base 50)
Averaged from 26 records on March 12, 2013
WEATHER CONDITIONS BREAKOUT
WIND DIRECTION BREAKOUT
WEATHER BY HOUR - MARCH 12, 2013
[ °C ]   °F
Local TimeTemperatureDewpointHumidityBarometerVisibilityWind DirectionWind SpeedGust SpeedPrecipitationEventsConditions
1:00 AM82.4 °F77.0 °F84 %29.77 inNorth (350°)6.9 mphClear
2:00 AM80.6 °F77.0 °F89 %29.74 inNorth (360°)2.3 mphClear
3:00 AM80.0 °F77.0 °F89 %29.74 in12.0 miCalm
3:00 AM80.6 °F77.0 °F89 %29.74 inCalmClear
4:00 AM78.8 °F77.0 °F94 %29.74 in6.2 miCalmPartly Cloudy
5:00 AM78.8 °F77.0 °F94 %29.77 in6.2 miCalmScattered Clouds
6:00 AM78.8 °F77.0 °F94 %29.77 in6.2 miCalmScattered Clouds
7:00 AM80.6 °F78.8 °F94 %29.80 in6.2 miCalmPartly Cloudy
8:00 AM82.4 °F77.0 °F84 %29.83 in6.2 miNE (50°)2.3 mphScattered Clouds
9:00 AM87.0 °F76.0 °F63 %29.87 in12.0 miNNE (30°)1.2 mphPartly Cloudy
9:00 AM87.8 °F77.0 °F70 %29.86 in6.2 miNNE (30°)1.2 mphMostly Cloudy
10:00 AM89.6 °F77.0 °F66 %29.86 in6.2 miNE (50°)3.5 mphScattered Clouds
11:00 AM93.2 °F75.2 °F56 %29.86 in6.2 miSouth (190°)3.5 mphScattered Clouds
12:00 PM93.2 °F78.8 °F63 %29.83 in6.2 miSW (230°)4.6 mphScattered Clouds
1:00 PM93.2 °F77.0 °F59 %29.77 in6.2 miWSW (250°)4.6 mphMostly Cloudy
2:00 PM95.0 °F75.2 °F53 %29.74 in6.2 miCalmMostly Cloudy
3:00 PM98.0 °F72.0 °F33 %29.72 in12.0 miSW (220°)2.3 mphPartly Cloudy
3:00 PM96.8 °F71.6 °F44 %29.71 in6.2 miSW (220°)2.3 mphScattered Clouds
4:00 PM96.8 °F73.4 °F47 %29.68 in6.2 miNW (310°)3.5 mphPartly Cloudy
5:00 PM96.8 °F75.2 °F50 %29.68 in6.2 miNorth (360°)5.8 mphPartly Cloudy
6:00 PM93.2 °F75.2 °F56 %29.71 inNorth (350°)4.6 mphClear
7:00 PM87.8 °F77.0 °F70 %29.71 inNorth (360°)3.5 mphClear
8:00 PM87.8 °F77.0 °F70 %29.74 inCalmClear
9:00 PM85.0 °F78.0 °F74 %29.78 in12.0 miNNW (330°)3.5 mphPartly Cloudy
9:00 PM86.0 °F78.8 °F79 %29.77 inNNW (330°)3.5 mphClear
10:00 PM84.2 °F78.8 °F84 %29.80 inNorth (360°)3.5 mphClear
Hourly data recorded from SBTE, located miles away from Teresina, Piaui




STORIES FROM OUR PARTNERS